Home > Weather > Amarillo > Past weeks

Flag for USA Weather for the Past 2 Weeks in Amarillo, Texas, USA

Now
47 °F

Sunny.


Feels Like: 42 °F
Forecast: 35 / 62 °F
Wind: 10 mph from North

Location: Amarillo International Airport

Current Time: Apr 30, 2016 at 10:41:56 AM

Latest Report: Apr 30, 2016 at 9:53 AM


Visibility: 10 mi

Pressure: 29.86 "Hg (26.07 "Hg at 1117m altitude)

Humidity: 66%

Dew Point: 36 °F

Location of AmarilloLocation

Historic Weather in Amarillo — Graph

°F

Amarillo Temperature Yesterday

Maximum temperature yesterday: 58 °F (at 12:53 AM)
Minimum temperature yesterday: 43 °F (at 11:53 PM)
Average temperature yesterday: 52 °F

High & Low Weather Summary for the Past Weeks

 TemperatureHumidityPressure
High85 °F (Apr 25, 3:53 PM)100% (Apr 16, 9:53 AM)30.27 "Hg (Apr 16, 9:53 AM)
Low36 °F (Apr 30, 6:53 AM)11% (Apr 24, 4:53 PM)29.49 "Hg (Apr 26, 2:53 PM)
Average58 °F62%29.84 "Hg
* Reported Apr 15 8:53 AM — Apr 30 8:53 AM, Amarillo, Weather by CustomWeather, © 2016

Note: Actual official high and low records may vary slightly from our data, if they occured in-between our weather recording intervals... More about our weather records

Advertising

Amarillo Weather History for the Previous 24 Hours

Scroll right to see more
 ConditionsComfort  
Time TempWeatherWind HumidityBarometerVisibility
8:53 AM
Sat, Apr 30
42 °FSunny.9 mph79%29.84 "Hg10 mi
7:53 AM39 °FClear.3 mph86%29.83 "Hg10 mi
6:53 AM36 °FClear.5 mph92%29.80 "Hg10 mi
5:53 AM37 °FClear.9 mph89%29.78 "Hg10 mi
4:53 AM37 °FClear.8 mph93%29.78 "Hg10 mi
3:53 AM38 °FClear.9 mph93%29.79 "Hg10 mi
2:53 AM39 °FPassing clouds.9 mph93%29.78 "Hg10 mi
1:53 AM41 °FLow clouds.14 mph89%29.76 "Hg10 mi
12:53 AM42 °FLow clouds.16 mph89%29.77 "Hg10 mi
11:53 PM
Fri, Apr 29
43 °FPassing clouds.13 mph89%29.77 "Hg10 mi
10:53 PM45 °FPassing clouds.14 mph90%29.78 "Hg10 mi
9:53 PM45 °FClear.14 mph90%29.76 "Hg10 mi
8:53 PM49 °FScattered clouds.17 mph84%29.75 "Hg10 mi
7:53 PM53 °FSunny.14 mph72%29.72 "Hg10 mi
6:53 PM56 °FSunny.14 mph67%29.68 "Hg10 mi
5:53 PM57 °FPassing clouds.20 mph67%29.67 "Hg10 mi
4:53 PM57 °FPartly sunny.14 mph69%29.67 "Hg10 mi
3:53 PM52 °FOvercast.15 mph83%29.69 "Hg10 mi
2:53 PM56 °FOvercast.6 mph75%29.67 "Hg10 mi
1:53 PM56 °FOvercast.9 mph75%29.65 "Hg10 mi
12:53 PM53 °FOvercast.8 mph80%29.69 "Hg10 mi
11:53 AM52 °FLow clouds.18 mph83%29.70 "Hg10 mi
10:53 AM50 °FLow clouds.21 mph89%29.69 "Hg10 mi
Weather by CustomWeather, © 2016

See weather overviewHow to use our weather pages